FW8095 Weather Reports


Display with metric or nautical units.
time (UTC)temp
F
wind
direction
speed
MPH
gust
MPH
rain 1hr
in
rain 24hr
in
rain mn
in
humidity
%
barometer
mb
20260831191550 95 100 1.0 4.0 0.00 0.00 0.00 56 1019.5
20260831190057 94 126 1.0 5.0 0.00 0.00 0.00 56 1019.5
20260831184541 94 103 1.0 3.0 0.00 0.00 0.00 57 1019.8
20260831183046 95 32 1.0 4.0 0.00 0.00 0.00 56 1020.0
20260831181556 94 101 1.0 5.0 0.00 0.00 0.00 58 1020.3
20260831180056 94 101 2.0 6.0 0.00 0.00 0.00 56 1020.4
20260831174547 92 268 1.0 4.0 0.00 0.00 0.00 60 1020.5
20260831173055 92 89 1.0 2.0 0.00 0.00 0.00 61 1020.7
20260831171547 91 0 0.0 3.0 0.00 0.00 0.00 62 1020.9
20260831170040 91 231 0.0 4.0 0.00 0.00 0.00 62 1020.9
20260831164547 93 167 1.0 6.0 0.00 0.00 0.00 59 1021.3
20260831163046 91 276 1.0 4.0 0.00 0.00 0.00 61 1021.4
20260831161554 90 139 1.0 3.0 0.00 0.00 0.00 65 1021.5
20260831160047 90 0 0.0 2.0 0.00 0.00 0.00 65 1021.7
20260831154611 91 89 1.0 5.0 0.00 0.00 0.00 64 1021.8
20260831153043 90 0 0.0 3.0 0.00 0.00 0.00 66 1021.7
20260831151549 88 98 1.0 4.0 0.00 0.00 0.00 69 1021.7
20260831150048 87 125 1.0 3.0 0.00 0.00 0.00 71 1021.7
20260831144552 86 187 1.0 3.0 0.00 0.00 0.00 73 1021.7
20260831143044 86 274 0.0 4.0 0.00 0.00 0.00 73 1021.6
20260831141549 84 257 0.0 4.0 0.00 0.00 0.00 77 1021.6
20260831140048 83 0 0.0 3.0 0.00 0.00 0.00 79 1021.7
20260831134552 82 242 0.0 1.0 0.00 0.00 0.00 80 1021.7
20260831133045 80 162 0.0 2.0 0.00 0.00 0.00 82 1021.6
20260831131545 79 0 0.0 2.0 0.00 0.00 0.00 84 1021.6
20260831130052 78 113 0.0 2.0 0.00 0.00 0.00 85 1021.5
20260831124549 77 0 0.0 1.0 0.00 0.00 0.00 86 1021.3
20260831123050 76 0 0.0 1.0 0.00 0.00 0.00 88 1021.2
20260831121549 76 0 0.0 1.0 0.00 0.00 0.00 89 1020.8
20260831120101 75 0 0.0 1.0 0.00 0.00 0.00 89 1020.6
20260831114548 75 0 0.0 1.0 0.00 0.00 0.00 90 1020.4
20260831113050 75 0 0.0 1.0 0.00 0.00 0.00 89 1020.3
20260831111554 75 0 0.0 0.0 0.00 0.00 0.00 89 1020.1
20260831110049 75 0 0.0 1.0 0.00 0.00 0.00 88 1020.1
20260831104548 74 0 0.0 0.0 0.00 0.00 0.00 90 1020.0
20260831103041 74 0 0.0 0.0 0.00 0.00 0.00 90 1019.9
20260831101556 74 0 0.0 0.0 0.00 0.00 0.00 90 1019.9
20260831100047 74 0 0.0 0.0 0.00 0.00 0.00 90 1019.8
20260831094544 74 0 0.0 0.0 0.00 0.00 0.00 89 1019.8
20260831093044 75 0 0.0 0.0 0.00 0.00 0.00 88 1019.6
20260831091559 75 0 0.0 0.0 0.00 0.00 0.00 88 1019.6
20260831090044 75 0 0.0 0.0 0.00 0.00 0.00 88 1019.7
20260831084547 75 0 0.0 0.0 0.00 0.00 0.00 88 1019.5
20260831083047 75 0 0.0 0.0 0.00 0.00 0.00 87 1019.4
20260831081543 76 0 0.0 0.0 0.00 0.00 0.00 86 1019.2
20260831080112 76 0 0.0 0.0 0.00 0.00 0.00 86 1019.2
20260831074545 77 0 0.0 0.0 0.00 0.00 0.00 85 1019.1
20260831073105 77 0 0.0 0.0 0.00 0.00 0.00 84 1019.0
20260831071553 77 0 0.0 0.0 0.00 0.00 0.00 83 1019.2
20260831070048 77 0 0.0 0.0 0.00 0.00 0.00 84 1019.1
20260831064549 77 0 0.0 0.0 0.00 0.00 0.00 83 1019.1
20260831063045 78 0 0.0 1.0 0.00 0.00 0.00 82 1019.2
20260831061549 78 0 0.0 1.0 0.00 0.00 0.00 82 1019.3
20260831060055 79 0 0.0 1.0 0.00 0.00 0.00 81 1019.2
20260831054552 79 0 0.0 0.0 0.00 0.00 0.00 80 1019.3
20260831053047 80 0 0.0 1.0 0.00 0.00 0.00 79 1019.4
20260831051543 80 0 0.0 1.0 0.00 0.00 0.00 78 1019.3
20260831050055 80 0 0.0 1.0 0.00 0.00 0.00 77 1019.5
20260831044556 81 0 0.0 2.0 0.00 0.00 0.00 77 1019.5
20260831043043 81 262 0.0 3.0 0.00 0.00 0.00 76 1019.4
20260831041609 81 0 0.0 1.0 0.00 0.00 0.00 76 1019.4
20260831040043 81 0 0.0 1.0 0.00 0.00 0.00 76 1019.3
20260831034553 81 0 0.0 0.0 0.00 0.00 0.00 75 1019.4
20260831033049 81 0 0.0 0.0 0.00 0.00 0.00 74 1019.3
20260831031543 81 0 0.0 1.0 0.00 0.00 0.00 74 1019.4
20260831030059 82 0 0.0 1.0 0.00 0.00 0.00 73 1019.3
20260831024547 82 0 0.0 1.0 0.00 0.00 0.00 73 1019.2
20260831023047 82 0 0.0 1.0 0.00 0.00 0.00 74 1019.3
20260831021547 82 0 0.0 1.0 0.00 0.00 0.00 74 1019.3
20260831020051 82 0 0.0 1.0 0.00 0.00 0.00 74 1019.2
20260831014549 82 0 0.0 0.0 0.00 0.00 0.00 73 1019.0
20260831013050 82 0 0.0 0.0 0.00 0.00 0.00 73 1019.1
20260831011548 83 0 0.0 0.0 0.00 0.00 0.00 72 1018.7
20260831004552 84 0 0.0 0.0 0.00 0.00 0.00 71 1018.3
20260831003052 84 0 0.0 0.0 0.00 0.00 0.00 70 1018.3
20260831001547 85 0 0.0 0.0 0.00 0.00 0.00 68 1018.3
20260831000049 86 0 0.0 0.0 0.00 0.00 0.00 66 1018.2
20260830234546 87 0 0.0 1.0 0.00 0.00 0.00 65 1018.2
20260830233050 87 0 0.0 2.0 0.00 0.00 0.00 64 1018.0
20260830231549 88 0 0.0 2.0 0.00 0.00 0.00 63 1018.1
20260830230047 88 126 0.0 2.0 0.00 0.00 0.00 63 1017.9
20260830224543 88 356 0.0 1.0 0.00 0.00 0.00 62 1017.9
20260830223048 89 101 0.0 2.0 0.00 0.00 0.00 61 1017.8
20260830221545 89 0 0.0 2.0 0.00 0.00 0.00 61 1017.8
20260830220051 89 134 0.0 5.0 0.00 0.00 0.00 61 1017.9
20260830214544 90 91 1.0 3.0 0.00 0.00 0.00 61 1017.9
20260830213052 90 86 1.0 3.0 0.00 0.00 0.00 61 1018.0
20260830211548 90 0 0.0 4.0 0.00 0.00 0.00 60 1018.2
20260830210046 90 260 1.0 5.0 0.00 0.00 0.00 60 1018.3
20260830204544 90 248 0.0 4.0 0.00 0.00 0.00 61 1018.4
20260830203051 90 98 1.0 5.0 0.00 0.00 0.00 60 1018.6
20260830201551 91 299 0.0 3.0 0.00 0.00 0.00 60 1018.7
20260830200048 91 120 0.0 3.0 0.00 0.00 0.00 59 1018.8
20260830194559 91 178 0.0 5.0 0.00 0.00 0.00 58 1019.2
20260830193049 93 274 1.0 6.0 0.00 0.00 0.00 56 1019.4